Fergus Falls, MN

10:36 PM CST on November 19, 2019 (GMT -0600)
Fergus Falls Municipal-Mickelson

Weather History for KFFM - August, 2019

Change the Weather History Date:

Friday, August 16, 2019

  Actual Average Record
Temperature  
Mean Temperature 66 °F -  
Max Temperature 78 °F 81 °F 102 °F (1988)
Min Temperature 55 °F 57 °F 48 °F (1958)
Cooling Degree Days 2    
Growing Degree Days 16 (Base 50)    
Moisture  
Dew Point 59 °F    
Average Humidity 80    
Maximum Humidity 100    
Minimum Humidity 47    
Precipitation  
Precipitation 0.00 in - - ()
Sea Level Pressure  
Sea Level Pressure 29.82 in    
Wind  
Wind Speed 5 mph (WSW)    
Max Wind Speed 13 mph    
Max Gust Speed 20 mph    
Visibility 8 miles    
Events Fog    
Averages and records for this station are not official NWS values.
T = Trace of Precipitation, MM = Missing Value Source: NWS Daily Summary

Daily Weather History Graph

Daily Weather History Graph

Search for Another Location

Airport or City:

Astronomy

Aug. 16, 2019 Rise Set
Actual Time 6:24 AM CDT 8:32 PM CDT
Civil Twilight 5:51 AM CDT 9:05 PM CDT
Nautical Twilight 5:11 AM CDT 9:45 PM CDT
Astronomical Twilight 4:25 AM CDT 10:30 PM CDT
Moon 9:29 PM CDT (8/16) 7:17 AM CDT (8/16)
Length of Visible Light 15h 13m
Length of Day
14h 07m
Full, 99% of the Moon is Illuminated
Aug 16
Full
Aug 23
Last Quarter
Aug 30
New
Sep 5
First Quarter
Sep 13
Full

Hourly Weather History & Observations

Time (CDT) Temp. Dew Point Humidity Pressure Visibility Wind Dir Wind Speed Gust Speed Precip Events Conditions
12:18 AM 60.8 °F 60.8 °F 100% 29.83 in 10.0 mi NNW 4.6 mph - N/A   Clear
12:36 AM 60.8 °F 60.8 °F 100% 29.83 in 7.0 mi NW 5.8 mph - N/A   Clear
12:55 AM 59.0 °F 59.0 °F 100% 29.84 in 10.0 mi NW 5.8 mph - N/A   Scattered Clouds
12:56 AM 59.0 °F 59.0 °F 100% 29.84 in 10.0 mi NW 4.6 mph - N/A   Scattered Clouds
1:15 AM 60.8 °F 60.8 °F 100% 29.83 in 10.0 mi Calm Calm - N/A   Mostly Cloudy
1:16 AM 60.8 °F 60.8 °F 100% 29.83 in 10.0 mi Calm Calm - N/A   Scattered Clouds
1:35 AM 59.0 °F 59.0 °F 100% 29.83 in 7.0 mi NW 4.6 mph - N/A   Clear
1:57 AM 57.2 °F 57.2 °F 100% 29.82 in 7.0 mi WNW 4.6 mph - N/A   Clear
2:16 AM 57.2 °F 57.2 °F 100% 29.82 in 7.0 mi Calm Calm - N/A   Clear
2:35 AM 57.2 °F 57.2 °F 100% 29.82 in 2.0 mi West 3.5 mph - N/A   Clear
2:36 AM 57.2 °F 57.2 °F 100% 29.81 in 2.0 mi West 4.6 mph - N/A   Clear
2:55 AM 55.4 °F 55.4 °F 100% 29.82 in 0.5 mi WNW 5.8 mph - N/A Fog Fog
2:56 AM 55.4 °F 55.4 °F 100% 29.82 in 0.8 mi WNW 5.8 mph - N/A   Mostly Cloudy
3:18 AM 57.2 °F 57.2 °F 100% 29.81 in 5.0 mi NW 3.5 mph - N/A   Clear
3:36 AM 57.2 °F 57.2 °F 100% 29.82 in 3.0 mi NW 3.5 mph - N/A   Clear
3:55 AM 55.4 °F 55.4 °F 100% 29.82 in 0.2 mi WNW 4.6 mph - N/A Fog Fog
4:15 AM 55.4 °F 55.4 °F 100% 29.82 in 0.2 mi Calm Calm - N/A Fog Fog
4:16 AM 55.4 °F 55.4 °F 100% 29.82 in 0.2 mi Calm Calm - N/A Fog Fog
4:35 AM 55.4 °F 55.4 °F 100% 29.82 in 0.2 mi Calm Calm - N/A Fog Fog
4:57 AM 57.2 °F 57.2 °F 100% 29.82 in 0.2 mi Calm Calm - N/A Fog Fog
5:16 AM 57.2 °F 57.2 °F 100% 29.82 in 0.2 mi WSW 3.5 mph - N/A Fog Fog
5:35 AM 57.2 °F 57.2 °F 100% 29.83 in 0.2 mi WSW 5.8 mph - N/A Fog Fog
5:36 AM 57.2 °F 57.2 °F 100% 29.83 in 0.2 mi WSW 4.6 mph - N/A Fog Fog
5:55 AM 55.4 °F 55.4 °F 100% 29.83 in 0.2 mi Calm Calm - N/A Fog Fog
5:56 AM 55.4 °F 55.4 °F 100% 29.83 in 0.2 mi Calm Calm - N/A Fog Fog
6:19 AM 55.4 °F 55.4 °F 100% 29.83 in 0.2 mi Calm Calm - N/A Fog Fog
6:36 AM 55.4 °F 55.4 °F 100% 29.83 in 0.2 mi Calm Calm - N/A Fog Fog
6:55 AM 55.4 °F 55.4 °F 100% 29.84 in 0.2 mi Calm Calm - N/A Fog Fog
7:15 AM 55.4 °F 55.4 °F 100% 29.83 in 0.2 mi Calm Calm - N/A Fog Fog
7:16 AM 55.4 °F 55.4 °F 100% 29.83 in 0.5 mi Calm Calm - N/A Fog Fog
7:35 AM 55.4 °F 55.4 °F 100% 29.83 in 10.0 mi Calm Calm - N/A   Clear
7:57 AM 57.2 °F 57.2 °F 100% 29.84 in 10.0 mi WSW 4.6 mph - N/A   Clear
8:15 AM 57.2 °F 57.2 °F 100% 29.84 in 10.0 mi WSW 5.8 mph - N/A   Clear
8:35 AM 59.0 °F 59.0 °F 100% 29.83 in 10.0 mi West 4.6 mph - N/A   Clear
8:55 AM 60.8 °F 60.8 °F 100% 29.83 in 10.0 mi West 5.8 mph - N/A   Clear
8:56 AM 60.8 °F 60.8 °F 100% 29.83 in 10.0 mi West 5.8 mph - N/A   Clear
9:18 AM 60.8 °F 60.8 °F 100% 29.83 in 10.0 mi West 5.8 mph - N/A   Clear
9:35 AM 62.6 °F 59.0 °F 88% 29.84 in 10.0 mi West 8.1 mph - N/A   Clear
9:55 AM 64.4 °F 60.8 °F 88% 29.84 in 10.0 mi West 6.9 mph - N/A   Clear
9:56 AM 64.4 °F 59.0 °F 83% 29.85 in 10.0 mi West 6.9 mph - N/A   Clear
10:15 AM 64.4 °F 59.0 °F 83% 29.85 in 10.0 mi West 4.6 mph - N/A   Clear
10:38 AM 66.2 °F 60.8 °F 83% 29.85 in 10.0 mi WNW 3.5 mph - N/A   Clear
10:56 AM 68.0 °F 60.8 °F 78% 29.84 in 10.0 mi West 3.5 mph - N/A   Clear
11:15 AM 69.8 °F 60.8 °F 73% 29.84 in 10.0 mi WSW 3.5 mph - N/A   Clear
11:16 AM 69.8 °F 60.8 °F 73% 29.84 in 10.0 mi WSW 3.5 mph - N/A   Clear
11:35 AM 69.8 °F 60.8 °F 73% 29.84 in 10.0 mi WSW 4.6 mph - N/A   Clear
11:36 AM 69.8 °F 60.8 °F 73% 29.84 in 10.0 mi WSW 5.8 mph - N/A   Clear
11:59 AM 71.6 °F 62.6 °F 73% 29.84 in 10.0 mi West 5.8 mph - N/A   Clear
12:15 PM 71.6 °F 62.6 °F 73% 29.84 in 10.0 mi West 6.9 mph - N/A   Clear
12:35 PM 73.4 °F 62.6 °F 69% 29.83 in 10.0 mi West 8.1 mph - N/A   Clear
12:36 PM 73.4 °F 62.6 °F 69% 29.83 in 10.0 mi West 8.1 mph - N/A   Clear
12:55 PM 73.4 °F 62.6 °F 69% 29.83 in 10.0 mi West 6.9 mph - N/A   Clear
12:56 PM 73.4 °F 62.6 °F 69% 29.83 in 10.0 mi West 6.9 mph - N/A   Clear
1:19 PM 75.2 °F 62.6 °F 65% 29.82 in 10.0 mi West 10.4 mph - N/A   Clear
1:36 PM 75.2 °F 62.6 °F 65% 29.82 in 10.0 mi West 8.1 mph - N/A   Scattered Clouds
1:55 PM 75.2 °F 60.8 °F 61% 29.82 in 10.0 mi West 10.4 mph - N/A   Clear
1:56 PM 75.2 °F 60.8 °F 61% 29.82 in 10.0 mi West 11.5 mph 17.3 mph N/A   Clear
2:15 PM 77.0 °F 62.6 °F 61% 29.82 in 10.0 mi West 10.4 mph - N/A   Clear
2:16 PM 77.0 °F 62.6 °F 61% 29.82 in 10.0 mi West 11.5 mph - N/A   Clear
2:38 PM 77.0 °F 62.6 °F 61% 29.81 in 10.0 mi West 10.4 mph - N/A   Scattered Clouds
2:56 PM 78.8 °F 60.8 °F 54% 29.81 in 10.0 mi West 11.5 mph 19.6 mph N/A   Scattered Clouds
3:16 PM 78.8 °F 59.0 °F 51% 29.81 in 10.0 mi WSW 12.7 mph - N/A   Scattered Clouds
3:35 PM 78.8 °F 59.0 °F 51% 29.80 in 10.0 mi WSW 11.5 mph - N/A   Clear
3:55 PM 78.8 °F 59.0 °F 51% 29.80 in 10.0 mi WSW 10.4 mph - N/A   Clear
3:59 PM 78.8 °F 57.2 °F 47% 29.80 in 10.0 mi West 12.7 mph - N/A   Clear
4:17 PM 78.8 °F 57.2 °F 47% 29.79 in 10.0 mi WSW 11.5 mph - N/A   Clear
4:36 PM 78.8 °F 57.2 °F 47% 29.80 in 10.0 mi West 9.2 mph - N/A   Clear
4:55 PM 78.8 °F 57.2 °F 47% 29.79 in 10.0 mi West 9.2 mph - N/A   Clear
4:56 PM 78.8 °F 57.2 °F 47% 29.79 in 10.0 mi West 9.2 mph - N/A   Clear
5:15 PM 78.8 °F 57.2 °F 47% 29.79 in 10.0 mi West 9.2 mph - N/A   Clear
5:20 PM 78.8 °F 57.2 °F 47% 29.79 in 10.0 mi West 10.4 mph - N/A   Clear
5:37 PM 78.8 °F 57.2 °F 47% 29.79 in 10.0 mi West 10.4 mph - N/A   Clear
5:56 PM 78.8 °F 59.0 °F 51% 29.79 in 10.0 mi West 6.9 mph - N/A   Clear
6:15 PM 78.8 °F 60.8 °F 54% 29.78 in 10.0 mi West 5.8 mph - N/A   Clear
6:35 PM 78.8 °F 59.0 °F 51% 29.78 in 10.0 mi WSW 8.1 mph - N/A   Clear
6:36 PM 78.8 °F 59.0 °F 51% 29.78 in 10.0 mi WSW 8.1 mph - N/A   Clear
6:59 PM 77.0 °F 60.8 °F 57% 29.78 in 10.0 mi SW 6.9 mph - N/A   Clear
7:16 PM 75.2 °F 62.6 °F 65% 29.78 in 10.0 mi SW 5.8 mph - N/A   Clear
7:35 PM 73.4 °F 62.6 °F 69% 29.78 in 10.0 mi SW 5.8 mph - N/A   Clear
7:36 PM 73.4 °F 62.6 °F 69% 29.78 in 10.0 mi SW 5.8 mph - N/A   Clear
7:55 PM 73.4 °F 62.6 °F 69% 29.78 in 10.0 mi SW 5.8 mph - N/A   Clear
7:56 PM 73.4 °F 62.6 °F 69% 29.78 in 10.0 mi SW 5.8 mph - N/A   Clear
8:18 PM 69.8 °F 62.6 °F 78% 29.78 in 10.0 mi SSW 4.6 mph - N/A   Clear
8:37 PM 69.8 °F 60.8 °F 73% 29.79 in 10.0 mi South 5.8 mph - N/A   Clear
8:55 PM 68.0 °F 60.8 °F 78% 29.79 in 10.0 mi South 5.8 mph - N/A   Clear
9:15 PM 66.2 °F 60.8 °F 83% 29.79 in 10.0 mi South 4.6 mph - N/A   Clear
9:35 PM 66.2 °F 60.8 °F 83% 29.80 in 10.0 mi South 4.6 mph - N/A   Clear
9:39 PM 66.2 °F 60.8 °F 83% 29.80 in 10.0 mi South 5.8 mph - N/A   Clear
9:58 PM 66.2 °F 60.8 °F 83% 29.80 in 10.0 mi SSE 5.8 mph - N/A   Clear
10:16 PM 64.4 °F 60.8 °F 88% 29.80 in 10.0 mi SSE 4.6 mph - N/A   Clear
10:35 PM 64.4 °F 60.8 °F 88% 29.80 in 10.0 mi SSE 4.6 mph - N/A   Clear
10:36 PM 64.4 °F 60.8 °F 88% 29.80 in 10.0 mi SSE 5.8 mph - N/A   Clear
10:55 PM 64.4 °F 60.8 °F 88% 29.80 in 10.0 mi SSE 4.6 mph - N/A   Clear
10:56 PM 64.4 °F 60.8 °F 88% 29.80 in 10.0 mi SSE 4.6 mph - N/A   Clear
11:18 PM 64.4 °F 59.0 °F 83% 29.80 in 10.0 mi SSE 5.8 mph - N/A   Clear
11:36 PM 62.6 °F 59.0 °F 88% 29.81 in 10.0 mi South 5.8 mph - N/A   Clear
11:56 PM 62.6 °F 57.2 °F 82% 29.82 in 10.0 mi South 5.8 mph - N/A   Clear